GW5205 Weather Reports


Display with metric or nautical units.
time (UTC)temp
F
wind
direction
speed
MPH
gust
MPH
rain 1hr
in
rain 24hr
in
rain mn
in
humidity
%
barometer
mb
20260506214820 63 108 2.0 6.0 0.00 0.00 0.00 63 1015.1
20260506214317 62 145 5.0 6.0 0.00 0.00 0.00 63 1015.0
20260506213815 62 149 3.0 11.0 0.00 0.00 0.00 62 1014.8
20260506213312 62 47 4.0 7.0 0.00 0.00 0.00 65 1014.7
20260506212809 62 102 8.0 9.0 0.00 0.00 0.00 64 1014.7
20260506212306 62 92 4.0 6.0 0.00 0.00 0.00 64 1014.8
20260506211800 63 116 5.0 5.0 0.00 0.00 0.00 64 1014.9
20260506211257 61 113 3.0 6.0 0.00 0.00 0.00 65 1014.8
20260506210754 62 57 3.0 5.0 0.00 0.00 0.00 68 1014.9
20260506210250 61 99 2.0 8.0 0.00 0.00 0.00 65 1015.0
20260506205748 60 108 4.0 11.0 0.00 0.00 0.00 68 1015.1
20260506205243 60 101 5.0 9.0 0.00 0.00 0.00 66 1015.3
20260506204740 59 109 5.0 6.0 0.00 0.00 0.00 68 1015.5
20260506204238 58 120 4.0 6.0 0.00 0.00 0.00 70 1015.6
20260506203736 59 62 4.0 6.0 0.00 0.00 0.00 68 1015.6
20260506203232 59 24 4.0 4.0 0.00 0.00 0.00 71 1015.7
20260506202730 58 82 1.0 5.0 0.00 0.00 0.00 70 1015.8
20260506202226 58 102 3.0 6.0 0.00 0.00 0.00 69 1016.0
20260506201723 58 57 4.0 6.0 0.00 0.00 0.00 70 1016.0
20260506201220 58 50 5.0 6.0 0.00 0.00 0.00 71 1016.2
20260506200717 57 67 4.0 5.0 0.00 0.00 0.00 73 1016.6
20260506200208 57 72 3.0 5.0 0.00 0.00 0.00 73 1016.4
20260506195659 57 121 3.0 5.0 0.00 0.00 0.00 71 1016.4
20260506195155 57 87 3.0 5.0 0.00 0.00 0.00 71 1016.4
20260506194653 57 95 3.0 4.0 0.00 0.00 0.00 73 1016.5
20260506194149 57 66 2.0 5.0 0.00 0.00 0.00 72 1016.6
20260506193647 57 61 3.0 6.0 0.00 0.00 0.00 72 1016.8
20260506193143 57 56 3.0 5.0 0.00 0.00 0.00 71 1016.6
20260506192640 57 78 2.0 5.0 0.00 0.00 0.00 71 1016.7
20260506192136 57 70 3.0 4.0 0.00 0.00 0.00 72 1017.1
20260506191633 57 15 4.0 5.0 0.00 0.00 0.00 69 1017.5
20260506191129 58 41 2.0 3.0 0.00 0.00 0.00 71 1017.5
20260506190627 57 45 5.0 5.0 0.00 0.00 0.00 69 1017.4
20260506190123 57 55 0.0 3.0 0.00 0.00 0.00 69 1017.5
20260506185620 57 98 4.0 4.0 0.00 0.00 0.00 68 1017.9
20260506185116 57 105 5.0 5.0 0.00 0.00 0.00 68 1017.5
20260506184614 57 35 3.0 4.0 0.00 0.00 0.00 69 1017.3
20260506184111 58 89 2.0 4.0 0.00 0.00 0.00 71 1017.8
20260506183608 57 77 0.0 5.0 0.00 0.00 0.00 69 1017.4
20260506183104 57 37 2.0 4.0 0.00 0.00 0.00 69 1017.2
20260506182602 57 184 2.0 4.0 0.00 0.00 0.00 70 1017.2
20260506182058 56 96 2.0 4.0 0.00 0.00 0.00 71 1017.1
20260506181556 56 55 4.0 5.0 0.00 0.00 0.00 70 1017.2
20260506181053 56 105 2.0 4.0 0.00 0.00 0.00 69 1017.2
20260506180550 57 96 4.0 6.0 0.00 0.00 0.00 69 1017.2
20260506180046 57 21 4.0 6.0 0.00 0.00 0.00 69 1017.5
20260506175542 57 29 4.0 6.0 0.00 0.00 0.00 69 1017.7
20260506175039 57 29 2.0 5.0 0.00 0.00 0.00 71 1017.6
20260506174538 57 37 2.0 3.0 0.00 0.00 0.00 68 1017.6
20260506174033 57 38 4.0 5.0 0.00 0.00 0.00 71 1017.7
20260506173531 57 18 5.0 5.0 0.00 0.00 0.00 72 1017.6
20260506173023 56 100 5.0 5.0 0.00 0.00 0.00 71 1017.8
20260506172520 55 74 2.0 8.0 0.00 0.00 0.00 73 1017.5
20260506172016 55 44 6.0 13.0 0.00 0.00 0.00 70 1017.5
20260506171513 55 92 6.0 6.0 0.00 0.00 0.00 71 1017.7
20260506171010 55 73 1.0 6.0 0.00 0.00 0.00 72 1017.7
20260506170507 55 46 4.0 4.0 0.00 0.00 0.00 73 1017.8
20260506170000 55 47 2.0 5.0 0.00 0.00 0.00 74 1018.3
20260506165458 55 100 2.0 5.0 0.00 0.00 0.00 72 1018.6
20260506164948 55 41 2.0 5.0 0.00 0.00 0.00 72 1018.6
20260506164445 55 28 3.0 6.0 0.00 0.00 0.00 72 1018.3
20260506163943 55 14 7.0 8.0 0.00 0.00 0.00 71 1018.1
20260506163438 55 82 2.0 6.0 0.00 0.00 0.00 72 1017.6
20260506162932 55 23 6.0 9.0 0.00 0.00 0.00 71 1017.6
20260506162431 55 74 8.0 10.0 0.00 0.00 0.00 69 1017.5
20260506161927 55 36 6.0 8.0 0.00 0.00 0.00 69 1017.3
20260506161425 55 44 3.0 5.0 0.00 0.00 0.00 71 1017.5
20260506160917 55 63 3.0 5.0 0.00 0.00 0.00 74 1017.8
20260506160414 55 42 3.0 9.0 0.00 0.00 0.00 69 1017.8
20260506155912 55 26 6.0 9.0 0.00 0.00 0.00 70 1017.3
20260506155408 55 42 4.0 6.0 0.00 0.00 0.00 71 1017.3
20260506153525 55 65 4.0 16.0 0.00 0.00 0.00 71 1017.0
20260506153022 55 92 3.0 9.0 0.00 0.00 0.00 71 1017.1
20260506152519 55 87 3.0 10.0 0.00 0.00 0.00 72 1016.6
20260506152017 55 47 6.0 9.0 0.00 0.00 0.00 73 1017.0
20260506151515 54 82 4.0 6.0 0.00 0.00 0.00 73 1017.0
20260506151012 54 52 6.0 8.0 0.00 0.00 0.00 73 1017.3
20260506150508 54 52 6.0 8.0 0.00 0.00 0.00 73 1017.3
20260506150005 54 74 4.0 10.0 0.00 0.00 0.00 73 1017.4
20260506145501 54 19 9.0 10.0 0.00 0.00 0.00 73 1017.6
20260506144959 54 30 5.0 8.0 0.00 0.00 0.00 74 1017.3
20260506144455 54 56 4.0 7.0 0.00 0.00 0.00 74 1017.5
20260506143953 53 20 5.0 9.0 0.00 0.00 0.00 73 1017.5
20260506143450 53 50 6.0 10.0 0.00 0.00 0.00 73 1017.5
20260506142949 53 60 6.0 9.0 0.00 0.00 0.00 73 1016.9
20260506142446 53 60 6.0 9.0 0.00 0.00 0.00 73 1016.9
20260506141944 53 45 5.0 7.0 0.00 0.00 0.00 73 1016.7
20260506141442 53 82 4.0 10.0 0.00 0.00 0.00 74 1016.4
20260506140940 53 77 3.0 12.0 0.00 0.00 0.00 74 1016.6
20260506140436 53 89 6.0 8.0 0.00 0.00 0.00 74 1017.0
20260506135933 53 44 4.0 6.0 0.00 0.00 0.00 77 1017.3
20260506135431 53 56 3.0 8.0 0.00 0.00 0.00 75 1017.4
20260506134927 53 94 6.0 7.0 0.00 0.00 0.00 75 1017.1
20260506134423 53 19 6.0 6.0 0.00 0.00 0.00 75 1016.9
20260506133920 53 95 6.0 6.0 0.00 0.00 0.00 75 1016.8
20260506133417 53 58 4.0 9.0 0.00 0.00 0.00 76 1016.5
20260506132914 53 47 7.0 8.0 0.00 0.00 0.00 76 1016.7
20260506132411 53 84 5.0 8.0 0.00 0.00 0.00 76 1016.9
20260506131908 53 84 2.0 6.0 0.00 0.00 0.00 76 1016.5
20260506131404 53 47 2.0 8.0 0.00 0.00 0.00 76 1016.8
20260506130902 53 82 7.0 9.0 0.00 0.00 0.00 76 1016.4
20260506130358 53 78 4.0 10.0 0.00 0.00 0.00 77 1016.0
20260506125856 53 59 4.0 6.0 0.00 0.00 0.00 78 1016.3
20260506125354 52 83 3.0 5.0 0.00 0.00 0.00 78 1016.4
20260506124852 52 71 4.0 6.0 0.00 0.00 0.00 78 1016.5
20260506124349 52 55 4.0 7.0 0.00 0.00 0.00 78 1016.3
20260506123847 52 69 4.0 6.0 0.00 0.00 0.00 78 1016.5
20260506123345 52 60 3.0 5.0 0.00 0.00 0.00 79 1016.2
20260506122842 52 56 4.0 5.0 0.00 0.00 0.00 78 1016.3
20260506122338 52 49 6.0 7.0 0.00 0.00 0.00 78 1016.1
20260506121837 52 92 4.0 6.0 0.00 0.00 0.00 79 1016.2
20260506121333 52 65 2.0 5.0 0.00 0.00 0.00 80 1016.0
20260506120831 52 52 5.0 8.0 0.00 0.00 0.00 79 1016.0
20260506120329 52 43 6.0 6.0 0.00 0.00 0.00 81 1016.1
20260506115826 52 51 6.0 10.0 0.00 0.00 0.00 79 1015.8
20260506115324 52 47 5.0 8.0 0.00 0.00 0.00 79 1015.6
20260506114821 52 77 5.0 10.0 0.00 0.00 0.00 79 1015.6
20260506114319 52 74 8.0 8.0 0.00 0.00 0.00 80 1014.8
20260506113817 52 43 8.0 9.0 0.00 0.00 0.00 81 1014.6
20260506113315 52 58 4.0 8.0 0.00 0.00 0.00 82 1014.5
20260506112811 52 50 8.0 8.0 0.00 0.00 0.00 84 1014.3
20260506112308 52 102 2.0 5.0 0.00 0.00 0.00 85 1014.2
20260506111805 52 46 2.0 9.0 0.00 0.00 0.00 84 1014.2
20260506111304 52 58 4.0 11.0 0.00 0.00 0.00 84 1014.0
20260506110801 52 55 4.0 4.0 0.00 0.00 0.00 85 1014.2
20260506110258 52 77 4.0 5.0 0.00 0.00 0.00 86 1013.8
20260506105754 52 96 4.0 6.0 0.00 0.00 0.00 86 1013.8
20260506105251 52 89 3.0 6.0 0.00 0.00 0.00 86 1013.8
20260506104749 52 76 3.0 10.0 0.00 0.00 0.00 86 1013.6
20260506104247 52 57 4.0 7.0 0.00 0.00 0.00 87 1013.5
20260506103744 52 64 2.0 6.0 0.00 0.00 0.00 87 1013.4
20260506103241 52 71 2.0 4.0 0.00 0.00 0.00 88 1013.3
20260506102738 52 88 5.0 6.0 0.00 0.00 0.00 87 1013.2
20260506102236 52 58 4.0 6.0 0.00 0.00 0.00 88 1013.4
20260506101733 52 60 3.0 3.0 0.00 0.00 0.00 89 1013.6
20260506101229 52 77 3.0 4.0 0.00 0.00 0.00 88 1013.6
20260506100728 52 37 1.0 8.0 0.00 0.00 0.00 88 1013.4
20260506100226 52 92 4.0 6.0 0.00 0.00 0.00 89 1013.1
20260506095724 52 83 4.0 4.0 0.00 0.00 0.00 89 1013.1
20260506095220 52 104 3.0 5.0 0.00 0.00 0.00 90 1013.0
20260506094717 52 118 3.0 8.0 0.00 0.00 0.00 90 1012.8
20260506094215 52 106 3.0 5.0 0.00 0.00 0.00 91 1012.8
20260506093714 52 73 1.0 10.0 0.00 0.00 0.00 91 1012.7
20260506093210 52 58 3.0 5.0 0.00 0.00 0.00 92 1012.3
20260506092708 52 49 2.0 8.0 0.00 0.00 0.00 92 1012.3
20260506092205 51 48 4.0 6.0 0.00 0.00 0.00 94 1012.3
20260506091703 51 108 4.0 6.0 0.00 0.00 0.00 96 1012.2
20260506091200 51 117 5.0 11.0 0.00 0.00 0.00 97 1011.9
20260506090658 51 72 2.0 7.0 0.00 0.00 0.00 97 1011.9
20260506090154 51 101 6.0 10.0 0.00 0.00 0.00 97 1011.8
20260506085651 51 114 6.0 6.0 0.00 0.00 0.00 98 1011.8
20260506085147 52 42 5.0 5.0 0.00 0.00 0.00 98 1011.5
20260506084644 52 39 2.0 5.0 0.00 0.00 0.00 97 1011.8
20260506084141 52 30 4.0 5.0 0.00 0.00 0.00 97 1011.8
20260506083638 52 62 3.0 4.0 0.00 0.00 0.00 97 1012.0
20260506083136 52 28 3.0 3.0 0.00 0.00 0.00 96 1011.9
20260506082632 52 128 2.0 4.0 0.00 0.00 0.00 96 1012.0
20260506082128 52 67 2.0 5.0 0.00 0.00 0.00 95 1011.4
20260506081626 52 123 2.0 3.0 0.00 0.00 0.00 95 1011.6
20260506081124 52 87 3.0 8.0 0.00 0.00 0.00 95 1011.3
20260506080621 52 53 5.0 8.0 0.00 0.00 0.00 94 1011.3
20260506080117 52 50 4.0 8.0 0.00 0.00 0.00 94 1011.5
20260506073101 53 19 4.0 6.0 0.00 0.00 0.00 95 1011.4
20260506072558 53 57 3.0 9.0 0.00 0.00 0.00 94 1011.3
20260506072056 53 58 6.0 9.0 0.00 0.00 0.00 94 1011.2
20260506071553 53 77 4.0 7.0 0.00 0.00 0.00 93 1011.3
20260506071051 54 18 2.0 6.0 0.00 0.00 0.00 92 1011.1
20260506070548 54 59 8.0 8.0 0.00 0.00 0.00 92 1010.9
20260506062022 57 25 5.0 5.0 0.00 0.00 0.00 90 1010.7
20260506061518 57 40 4.0 5.0 0.00 0.00 0.00 89 1010.7
20260506061016 57 17 4.0 4.0 0.00 0.00 0.00 88 1010.6
20260506060514 58 11 5.0 6.0 0.00 0.00 0.00 88 1010.7
20260506050943 61 236 2.0 4.0 0.00 0.00 0.00 86 1010.2
20260506050441 61 246 2.0 5.0 0.00 0.00 0.00 86 1010.2
20260506044930 61 212 2.0 4.0 0.00 0.04 0.04 86 1010.4
20260506044429 62 220 3.0 5.0 0.00 0.04 0.04 87 1010.0
20260506043925 62 207 6.0 8.0 0.00 0.04 0.04 86 1010.2
20260506043423 62 253 2.0 2.0 0.00 0.04 0.04 87 1009.9
20260506042921 62 55 1.0 2.0 0.00 0.04 0.04 87 1009.8
20260506042420 62 87 3.0 5.0 0.00 0.04 0.04 86 1009.3
20260506041918 62 86 2.0 3.0 0.00 0.04 0.04 86 1009.7
20260506041415 62 81 2.0 2.0 0.00 0.04 0.04 86 1009.5
20260506040912 62 27 1.0 2.0 0.00 0.04 0.04 86 1009.4
20260506040409 63 59 1.0 2.0 0.00 0.04 0.04 87 1009.2
20260506035905 63 99 2.0 4.0 0.00 0.04 0.04 87 1009.1
20260506035403 63 54 2.0 4.0 0.00 0.04 0.04 87 1009.1
20260506034859 63 63 2.0 4.0 0.00 0.04 0.04 86 1008.9
20260506034358 63 52 2.0 5.0 0.00 0.04 0.04 86 1008.8
20260506033854 63 34 2.0 4.0 0.00 0.04 0.04 87 1008.9
20260506033351 63 15 4.0 6.0 0.00 0.04 0.04 86 1008.7
20260506032848 64 6 4.0 4.0 0.00 0.04 0.04 86 1008.7
20260506032344 64 11 2.0 4.0 0.00 0.04 0.04 86 1008.6
20260506031841 64 20 4.0 7.0 0.00 0.04 0.04 86 1008.4
20260506031339 64 48 1.0 6.0 0.00 0.04 0.04 86 1008.3
20260506030836 64 14 6.0 7.0 0.00 0.04 0.04 85 1008.5
20260506030334 65 7 2.0 5.0 0.00 0.04 0.04 85 1008.5
20260506025831 65 28 5.0 8.0 0.00 0.04 0.04 85 1008.1
20260506025327 66 21 2.0 5.0 0.00 0.04 0.04 87 1007.8
20260506024824 66 309 2.0 5.0 0.00 0.04 0.04 88 1007.6
20260506024321 67 2 1.0 3.0 0.00 0.04 0.04 87 1007.6
20260506023817 67 13 3.0 4.0 0.00 0.04 0.04 87 1007.4
20260506023314 67 298 3.0 4.0 0.00 0.04 0.04 87 1007.1
20260506022811 68 215 2.0 4.0 0.00 0.04 0.04 87 1007.0
20260506022309 68 339 3.0 3.0 0.00 0.04 0.04 86 1006.5
20260506021807 69 351 2.0 5.0 0.00 0.04 0.04 86 1006.7
20260506021303 69 342 3.0 8.0 0.00 0.04 0.04 86 1006.4
20260506020800 72 17 3.0 7.0 0.00 0.04 0.04 87 1006.3
20260506020258 73 164 1.0 3.0 0.00 0.04 0.04 90 1005.9
20260506015755 73 0 2.0 4.0 0.00 0.04 0.04 89 1006.1
20260506015252 73 259 0.0 2.0 0.00 0.04 0.04 89 1006.2
20260506014749 73 257 0.0 2.0 0.00 0.04 0.04 90 1006.2
20260506014246 73 309 0.0 1.0 0.00 0.04 0.04 91 1005.8
20260506013743 72 195 0.0 1.0 0.00 0.04 0.04 90 1005.8
20260506013240 73 202 0.0 3.0 0.00 0.04 0.04 90 1005.8
20260506012736 73 223 1.0 1.0 0.00 0.04 0.04 89 1005.6
20260506012233 73 195 0.0 2.0 0.00 0.04 0.04 88 1005.6
20260506011731 73 200 1.0 2.0 0.00 0.04 0.04 88 1005.7
20260506011227 73 235 2.0 3.0 0.00 0.04 0.04 88 1005.5
20260506010725 73 220 0.0 2.0 0.00 0.04 0.04 87 1005.4
20260506010222 73 132 0.0 1.0 0.00 0.04 0.04 87 1005.2
20260506005720 74 130 1.0 2.0 0.00 0.04 0.04 86 1005.2
20260506005216 74 128 2.0 2.0 0.00 0.04 0.04 86 1005.3
20260506004712 74 155 1.0 3.0 0.00 0.04 0.04 85 1005.2
20260506004210 74 132 0.0 1.0 0.00 0.04 0.04 85 1005.1
20260506003706 74 110 2.0 2.0 0.00 0.04 0.04 85 1005.0
20260506003202 75 123 2.0 3.0 0.00 0.04 0.04 84 1005.0
20260506002658 75 137 2.0 3.0 0.00 0.04 0.04 84 1004.9
20260506002154 75 154 2.0 3.0 0.00 0.04 0.04 84 1004.8
20260506001650 75 98 2.0 4.0 0.00 0.04 0.04 84 1004.9
20260506001148 75 131 2.0 2.0 0.00 0.04 0.04 82 1005.0
20260506000645 75 128 4.0 6.0 0.00 0.04 0.04 82 1004.8
20260506000142 75 101 2.0 4.0 0.00 0.04 0.04 82 1004.4
20260505235640 76 66 2.0 6.0 0.00 0.04 0.04 81 1004.7
20260505235137 77 101 2.0 2.0 0.00 0.04 0.04 77 1004.8
20260505234634 77 169 1.0 3.0 0.00 0.04 0.04 77 1004.8
20260505234130 77 210 1.0 2.0 0.00 0.04 0.04 78 1004.7
20260505233628 77 184 2.0 5.0 0.00 0.04 0.04 78 1004.4
20260505233125 78 183 0.0 4.0 0.00 0.04 0.04 77 1004.4
20260505232623 78 211 2.0 2.0 0.00 0.04 0.04 77 1004.4
20260505232120 78 178 0.0 3.0 0.00 0.04 0.04 76 1004.4
20260505231617 78 205 0.0 4.0 0.00 0.04 0.04 76 1004.3
20260505231116 78 190 2.0 4.0 0.00 0.04 0.04 76 1004.6
20260505230613 78 202 2.0 5.0 0.00 0.04 0.04 76 1004.9
20260505230109 78 180 1.0 3.0 0.00 0.04 0.04 76 1004.4
20260505225606 79 223 4.0 4.0 0.00 0.04 0.04 74 1004.2
20260505225102 80 183 1.0 5.0 0.00 0.04 0.04 71 1004.1
20260505224559 79 174 2.0 3.0 0.00 0.04 0.04 73 1004.1
20260505224056 79 219 1.0 3.0 0.00 0.04 0.04 75 1004.4
20260505223554 77 197 2.0 3.0 0.00 0.04 0.04 76 1005.0
20260505223049 77 224 3.0 6.0 0.00 0.04 0.04 76 1005.2
20260505222546 77 199 3.0 8.0 0.00 0.04 0.04 76 1005.0
20260505222042 77 191 2.0 8.0 0.00 0.04 0.04 76 1004.7
20260505221539 77 192 2.0 6.0 0.00 0.04 0.04 76 1004.8
20260505221036 78 205 1.0 4.0 0.00 0.04 0.04 75 1004.8
20260505220533 78 223 5.0 6.0 0.00 0.04 0.04 74 1004.8
20260505220031 79 207 2.0 4.0 0.00 0.04 0.04 74 1004.7
20260505215529 79 215 5.0 5.0 0.00 0.04 0.04 73 1004.3